Погода в Топаре

Казахстан     49°31′16″N   72°49′37″E
темп.,
°C
ветер,
м/с
пор.,
м/с
влажн.,
%
обл.,
%
осадки,
мм/ч
давл.,
гПа
погр.,
м
1 августа, вс
вс100:00+21ююв44340 0.0 101345
03:00+22ююз36312 0.0 1012107
06:00+19юз46375 0.0 101389
09:00+26з5723100 0.0 1012585
12:00+31зсз4623100 0.0 10112169
15:00+31ссз882785 0.0 10092819
18:00+30с77294 0.0 10092417
21:00+25ссв47400 0.0 101096
2 августа, пн
пн200:00+22всв33445 0.0 101022
03:00+21вюв33464 0.0 101019
06:00+19зюз11539 0.0 101011
09:00+27зсз22356 0.0 1010466
12:00+31сз45295 0.0 10092974
15:00+32ссз75243 0.0 10083073
18:00+32ссз75242 0.0 10083037
21:00+26с46330 0.0 100988
3 августа, вт
вт300:00+22св33476 0.0 101137
03:00+19ссв115451 0.0 101011
06:00+18ссв48560 0.0 1012153
09:00+24св56390 0.0 1012672
12:00+28с55270 0.0 10121993
15:00+29с65241 0.0 10112432
18:00+29с65255 0.0 10102540
21:00+24с511363 0.0 1012265
4 августа, ср
ср400:00+20ссв35453 0.0 101274
03:00+18всв225315 0.0 101313
06:00+17св22561 0.0 101314
09:00+23св2340100 0.0 1014464
12:00+26ссв4429100 0.0 10132177
15:00+29с45255 0.0 10122640
18:00+29ссз6624100 0.0 10112977
21:00+23сз48378 0.0 1012117
5 августа, чт
чт500:00+20в47513 0.0 1013125
03:00+18в22591 0.0 101311
06:00+16св226330 0.0 101411
09:00+23св344315 0.0 1013646
12:00+27ссв44300 0.0 10132319
15:00+29с54230 0.0 10122456
18:00+29ссв55230 0.0 10112423
21:00+23св33323 0.0 101230